Flag for Canada Weather past 2 weeks in Haldimand, Ontario, Canada

Now
54 °F

Partly sunny.


Feels Like: 48 °F
Forecast: 38 / 48 °F
Wind: 20 mph from Southwest

Location: Hamilton Airport

Current Time: Apr 20, 2015 at 9:55:53 PM

Latest Report: Apr 20, 2015 at 9:00 PM


Visibility: 15 mi

Pressure: 29.46 "Hg

Humidity: 72%

Dew point: 45 °F

Location of HaldimandLocation

Historic Weather in Haldimand — Graph

°F

Haldimand temperature yesterday

Maximum temperature yesterday: 46 °F (at 12:00 AM)
Minimum temperature yesterday: 37 °F (at 5:00 AM)
Average temperature yesterday: 41 °F

Past Weeks' High & Low Weather Summary

 TemperatureHumidityPressure
High75 °F (Apr 13, 3:00 PM)100% (Apr 8, 12:00 PM)30.41 "Hg (Apr 8, 12:00 PM)
Low30 °F (Apr 5, 10:00 PM)21% (Apr 18, 5:00 PM)29.36 "Hg (Apr 20, 4:00 PM)
Average46 °F70%30.07 "Hg
* Reported Apr 5 8:00 PM — Apr 20 8:00 PM, Haldimand, Weather by CustomWeather, © 2015

Note: Actual official high and low records may vary slightly from our data, if they occured in-between our weather recording intervals... More about our weather records

Advertising

Haldimand weather history for previous 24 hours

 ConditionsComfort  
Time TempWeatherWind HumidityBarometerVisibility
8:00 PM
Mon, Apr 20
55 °FBroken clouds.22 mph67%29.45 "Hg15 mi
7:00 PM59 °FBroken clouds.29 mph63%29.41 "Hg15 mi
6:00 PM61 °FBroken clouds.25 mph68%29.39 "Hg15 mi
5:00 PM63 °FBroken clouds.18 mph77%29.37 "Hg15 mi
4:00 PM61 °FPartly sunny.21 mph83%29.36 "Hg15 mi
3:46 PM61 °FPartly sunny.14 mph94%29.37 "Hg15 mi
3:00 PM59 °FLight rain. Cloudy.9 mph94%29.38 "Hg10 mi
2:00 PM57 °FLight rain. Fog.12 mph94%29.39 "Hg6 mi
1:00 PM61 °FMostly cloudy.20 mph83%29.39 "Hg15 mi
12:00 PM63 °FCloudy.18 mph77%29.40 "Hg15 mi
11:00 AM55 °FLight rain. Mostly cloudy.13 mph88%29.43 "Hg12 mi
10:00 AM50 °FLight rain. Mostly cloudy.16 mph94%29.42 "Hg10 mi
9:00 AM48 °FLight rain. Fog.17 mph94%29.44 "Hg6 mi
8:00 AM48 °FLight rain. Fog.13 mph94%29.46 "Hg5 mi
7:00 AM45 °FLight rain. Fog.9 mph93%29.47 "Hg2 mi
6:52 AM45 °FLight rain. Fog.9 mph93%29.47 "Hg2 mi
6:00 AM45 °FMostly cloudy.8 mph100%29.49 "Hg8 mi
5:50 AM43 °FMostly cloudy.8 mph100%29.49 "Hg8 mi
5:00 AM43 °FLight rain. Fog.9 mph100%29.50 "Hg2 mi
4:00 AM41 °FLight rain. Fog.10 mph100%29.54 "Hg2 mi
3:00 AM41 °FLight rain. Fog.13 mph93%29.57 "Hg4 mi
2:00 AM41 °FLight rain. Fog.15 mph93%29.63 "Hg5 mi
1:00 AM39 °FLight rain. Fog.15 mph100%29.67 "Hg6 mi
12:00 AM41 °FLight rain. Mostly cloudy.12 mph87%29.73 "Hg10 mi
11:00 PM
Sun, Apr 19
41 °FLight rain. Overcast.12 mph81%29.77 "Hg10 mi
10:00 PM41 °FLight rain. Overcast.16 mph76%29.81 "Hg12 mi
9:52 PM41 °FLight rain. Overcast.13 mph70%29.83 "Hg12 mi
9:00 PM41 °FOvercast.18 mph70%29.83 "Hg15 mi
Weather by CustomWeather, © 2015

See weather overviewHow to use our weather pages